SCP
0 0 0 0 0 0 0 0 0 0 0 0 0 0 0 0 0 0 0 0 0 0 0 0 0 0 0 0 0 0 0 0 0 0 0 0 0 0 0 0 0 0 0
0 0 0 0 0 0 0 0 0 0 0 0 0 0 0 0 0 0 0 0 0 0 0 0 0 0 0 0 0 0 0 0 0 0 0 0 0 0 0 0 0 0 0
0 0 0 0 0 0 0 0 0 0 0 0 0 0 0 0 0 0 0 0 0 0 0 0 0 0 0 0 0 0 0 0 0 0 0 0 0 0 0 0 0 0 0
0 0 0 0 0 0 0 0 0 0 0 0 0 0 0 0 0 0 0 0 0 0 0 0 0 0 0 0 0 0 0 0 0 0 0 0 0 0 0 0 0 0 0
0 0 0 0 0 0 0 0 0 0 0 0 0 0 0 0 0 0 0 0 0 0 0 0 0 0 0 0 0 0 0 0 0 0 0 0 0 0 0 0 0 0 0
0 0 0 0 0 0 0 0 0 0 0 0 0 0 0 0 0 0 0 0 0 0 0 0 0 0 0 0 0 0 0 0 0 0 0 0 0 0 0 0 0 0 0
0 0 0 0 0 0 0 0 0 0 0 0 0 0 0 0 0 0 0 0 0 0 0 0 0 0 0 0 0 0 0 0 0 0 0 0 0 0 0 0 0 0 0
0 0 0 0 0 0 0 0 0 0 0 0 0 0 0 0 0 0 0 0 0 0 0 0 0 0 0 0 0 0 0 0 0 0 0 0 0 0 0 0 0 0 0
0 0 0 0 0 0 0 0 0 0 0 0 0 0 0 0 0 0 0 0 0 0 0 0 0 0 0 0 0 0 0 0 0 0 0 0 0 0 0 0 0 0 0
0 0 0 0 0 0 0 0 0 0 0 0 0 0 0 0 0 0 0 0 0 0 0 0 0 0 0 0 0 0 0 0 0 0 0 0 0 0 0 0 0 0 0
0 0 0 0 0 0 0 0 0 0 0 0 0 0 0 0 0 0 0 0 0 0 0 0 0 0 0 0 0 0 0 0 0 0 0 0 0 0 0 0 0 0 0
0 0 0 0 0 0 0 0 0 0 0 0 0 0 0 0 0 0 0 0 0 0 0 0 0 0 0 0 0 0 0 0 0 0 0 0 0 0 0 0 0 0 0
0 0 0 0 0 0 0 0 0 0 0 0 0 0 0 0 0 0 0 0 0 0 0 0 0 0 0 0 0 0 0 0 0 0 0 0 0 0 0 0 0 0 0
0 0 0 0 0 0 0 0 0 0 0 0 0 0 0 0 0 0 0 0 0 0 0 0 0 0 0 0 0 0 0 0 0 0 0 0 0 0 0 0 0 0 0
0 0 0 0 0 0 0 0 0 0 0 0 0 0 0 0 0 0 0 0 0 0 0 0 0 0 0 0 0 0 0 0 0 0 0 0 0 0 0 0 0 0 0
0 0 0 0 0 0 0 0 0 0 0 0 0 0 0 0 0 0 0 0 0 0 0 0 0 0 0 0 0 0 0 0 0 0 0 0 0 0 0 0 0 0 0
0 0 0 0 0 0 0 0 0 0 0 0 0 0 0 0 0 0 0 0 0 0 0 0 0 0 0 0 0 0 0 0 0 0 0 0 0 0 0 0 0 0 0
0 0 0 0 0 0 0 0 0 0 0 0 0 0 0 0 0 0 0 0 0 0 0 0 0 0 0 0 0 0 0 0 0 0 0 0 0 0 0 0 0 0 0
0 0 0 0 0 0 0 0 0 0 0 0 0 0 0 0 0 0 0 0 0 0 0 0 0 0 0 0 0 0 0 0 0 0 0 0 0 0 0 0 0 0 0
0 0 0 0 0 0 0 0 0 0 0 0 0 0 0 0 0 0 0 0 0 0 0 0 0 0 0 0 0 0 0 0 0 0 0 0 0 0 0 0 0 0 0
0 0 0 0 0 0 0 0 0 0 0 0 0 0 0 0 0 0 0 0 0 0 0 0 0 0 0 0 0 0 0 0 0 0 0 0 0 0 0 0 0 0 0
0 0 0 0 0 0 0 0 0 0 0 0 0 0 0 0 0 0 0 0 0 0 0 0 0 0 0 0 0 0 0 0 0 0 0 0 0 0 0 0 0 0 0
0 0 0 0 0 0 0 0 0 0 0 0 0 0 0 0 0 0 0 0 0 0 0 0 0 0 0 0 0 0 0 0 0 0 0 0 0 0 0 0 0 0 0
0 0 0 0 0 0 0 0 0 0 0 0 0 0 0 0 0 0 0 0 0 0 0 0 0 0 0 0 0 0 0 0 0 0 0 0 0 0 0 0 0 0 0
0 0 0 0 0 0 0 0 0 0 0 0 0 0 0 0 0 0 0 0 0 0 0 0 0 0 0 0 0 0 0 0 0 0 0 0 0 0 0 0 0 0 0
0 0 0 0 0 0 0 0 0 0 0 0 0 0 0 0 0 0 0 0 0 0 0 0 0 0 0 0 0 0 0 0 0 0 0 0 0 0 0 0 0 0 0
Wind_Speed
0 1 1 1 1 1 1 2 2 2 3 3 3 4 4 4 4 3 3 8 9 9 9 9 9 9 9 9 9 9 9 9 9 9 8 8 8 8 9 10 11 11 12
1 1 1 1 1 1 1 2 2 2 2 2 3 3 4 4 4 4 4 5 8 8 9 9 9 9 9 9 9 9 9 9 9 9 9 9 8 8 9 9 10 11 11
1 1 1 1 1 1 1 1 1 1 2 2 3 3 3 3 4 4 4 3 4 7 8 9 9 9 9 9 9 10 10 10 10 10 10 10 9 9 9 9 9 10 10
1 1 1 1 1 1 1 1 1 1 2 2 2 3 3 3 4 4 4 4 3 4 6 8 9 9 10 10 10 10 10 11 11 11 10 10 10 9 9 10 9 9 9
2 1 1 1 1 1 1 2 1 1 2 2 2 2 2 3 3 4 4 5 4 4 3 5 8 9 11 11 11 11 11 11 11 11 10 10 10 9 9 9 10 10 9
1 1 1 1 1 1 1 1 2 1 2 2 2 2 2 2 3 3 4 3 3 4 4 4 4 5 9 9 10 10 10 10 10 10 10 10 9 9 9 9 9 10 10
1 1 1 1 1 1 2 2 2 2 1 1 0 1 2 2 2 2 2 2 3 3 3 3 3 3 3 7 9 10 10 10 9 9 10 10 9 9 9 9 9 9 10
2 1 1 2 2 1 2 2 2 1 1 1 1 0 1 2 1 1 1 2 2 2 2 3 3 3 3 2 5 8 9 9 10 10 10 9 9 9 9 9 10 10 10
2 2 2 2 2 2 2 2 2 2 2 1 1 2 2 2 2 1 2 1 1 1 2 2 2 3 3 3 3 6 8 8 10 11 10 10 9 9 10 10 10 10 10
2 2 2 2 2 2 2 2 1 2 2 2 1 1 2 2 1 1 1 1 1 2 2 2 2 2 3 3 4 6 7 7 9 10 10 10 9 9 10 11 11 11 12
3 2 2 1 1 1 2 2 1 1 2 2 2 1 1 1 1 2 2 2 1 2 2 2 2 2 3 3 3 5 6 7 7 8 8 8 9 9 10 11 12 12 12
2 3 2 1 1 1 1 2 2 2 2 2 2 2 2 2 2 2 2 2 2 2 2 2 2 2 2 3 4 6 6 6 6 7 7 8 9 10 10 11 11 12 12
2 3 2 1 1 1 2 2 2 2 2 2 3 2 2 2 2 2 2 2 2 2 2 2 2 2 2 2 3 5 6 6 6 6 6 7 7 8 9 10 11 11 12
3 3 2 1 2 2 2 1 2 2 2 3 3 3 2 2 2 2 3 2 2 2 2 3 1 2 2 2 3 5 4 6 6 6 7 7 7 8 8 9 9 9 9
3 2 2 2 2 2 2 2 2 2 2 2 2 2 2 2 2 2 2 3 3 2 2 2 2 2 2 2 3 3 3 4 6 6 7 7 7 7 7 7 7 8 8
3 3 2 2 2 2 2 1 1 1 1 1 1 1 2 1 1 1 2 2 3 3 2 2 2 2 2 2 3 2 3 4 5 5 6 6 6 6 6 6 7 7 8
2 2 2 2 2 2 2 1 1 1 1 1 1 1 2 1 1 1 1 2 2 3 3 2 2 2 2 2 3 2 2 2 2 4 5 5 5 6 6 5 6 6 6
2 2 2 2 2 2 1 1 2 2 1 1 1 1 1 1 1 1 1 2 2 3 3 3 2 2 2 2 2 2 2 2 2 3 4 4 5 5 5 5 5 6 6
2 2 1 1 2 2 1 2 2 2 1 1 1 2 2 2 2 2 2 2 2 2 2 2 2 1 2 2 2 2 2 2 2 2 3 3 3 4 4 5 5 6 6
2 2 2 2 2 2 2 2 2 2 2 2 2 2 2 3 3 3 2 2 2 2 2 2 2 2 2 2 1 1 1 1 2 2 2 2 3 4 4 5 6 6 6
2 2 2 3 3 2 2 2 2 2 2 2 2 2 2 3 4 3 2 2 2 2 2 2 1 1 1 1 1 1 1 2 2 1 1 1 1 2 3 4 4 5 5
3 3 3 3 3 3 4 4 2 2 2 2 3 3 3 2 2 2 2 2 3 3 3 2 2 2 3 2 2 1 1 1 1 1 1 2 1 2 2 2 3 4 5
3 3 3 3 3 4 5 5 4 2 2 2 3 3 2 2 1 1 1 1 2 3 5 4 4 4 3 3 2 2 2 1 2 2 1 2 1 2 2 2 3 4 4
2 2 3 3 3 5 5 5 5 2 2 3 3 3 2 3 2 1 1 1 1 2 3 3 4 4 4 3 3 3 2 1 1 1 1 1 2 2 2 2 2 3 4
2 2 2 3 3 5 6 5 3 2 2 3 3 3 2 2 3 1 1 0 1 2 1 1 2 2 2 1 2 1 1 1 1 1 1 1 1 2 2 2 2 2 2
1 2 3 3 3 4 6 5 3 1 2 3 3 3 3 2 3 0 2 1 1 2 2 2 2 2 2 1 1 2 2 2 1 1 1 1 1 1 1 1 2 2 2
Wind_Direction
265 312 301 306 300 292 280 279 272 262 254 250 243 228 220 216 215 215 227 233 234 235 238 234 228 221 220 219 218 215 217 214 210 208 208 214 220 224 223 220 220 220 217
219 253 281 292 288 279 271 264 264 266 264 254 252 238 224 222 218 216 224 238 240 239 236 233 230 223 222 221 219 217 216 216 215 214 215 215 219 223 223 222 223 223 221
233 234 252 272 278 281 280 281 285 278 267 259 255 247 231 224 219 223 224 225 236 240 237 234 231 228 227 225 226 222 219 219 217 218 219 219 220 222 222 222 223 224 223
240 237 246 264 277 285 273 263 270 266 271 268 261 252 236 231 225 222 222 220 224 237 240 237 235 232 231 230 231 229 226 222 219 218 220 221 221 223 223 222 222 223 224
250 228 245 262 279 287 281 273 265 233 257 267 256 255 245 233 230 227 225 225 222 225 230 238 235 234 232 232 233 233 233 226 221 219 222 225 226 226 224 225 224 223 223
268 237 262 273 278 282 282 268 260 248 247 257 262 274 269 249 229 225 231 231 229 226 222 230 235 241 236 236 237 235 233 228 225 223 226 228 228 226 224 225 226 226 226
270 239 251 271 277 263 264 256 248 259 268 259 244 309 304 267 240 235 229 221 227 233 225 220 226 234 242 243 244 242 235 232 232 232 231 232 232 227 225 226 226 225 226
261 257 246 259 256 251 276 275 241 232 257 213 175 181 319 318 294 254 221 213 224 222 228 224 221 223 228 233 244 243 240 236 237 237 235 234 233 230 228 229 230 227 227
268 261 255 252 258 242 248 253 239 211 226 242 194 179 187 230 303 298 245 226 214 200 226 231 218 225 227 228 238 249 245 239 240 240 236 233 232 231 232 233 232 230 231
295 283 270 256 251 239 244 248 234 219 202 223 227 214 206 185 195 298 314 272 240 220 233 236 237 240 238 238 244 249 245 238 240 241 240 238 237 238 238 236 235 234 233
305 295 281 262 251 242 246 250 247 229 209 212 210 203 193 191 203 206 267 299 302 258 245 242 237 241 243 242 247 249 246 235 235 241 244 243 240 240 240 238 237 236 235
306 307 305 281 259 249 254 251 240 225 222 216 213 204 190 191 197 200 223 252 277 280 266 254 239 243 248 245 248 256 246 235 232 238 243 242 240 240 241 241 241 239 237
303 300 301 281 265 256 258 254 251 249 232 220 217 220 213 214 196 189 200 226 255 279 285 265 244 248 259 255 251 257 247 238 234 235 237 241 243 244 246 245 243 243 243
276 287 302 290 280 279 281 270 257 254 240 232 228 220 218 220 202 196 195 195 239 270 267 270 279 249 269 271 268 259 249 241 237 237 237 237 241 243 246 248 245 244 246
284 293 304 296 299 303 296 287 268 262 251 240 233 225 222 225 205 202 199 193 197 236 264 262 268 274 279 270 278 261 256 254 248 246 242 237 237 241 245 248 249 247 244
312 319 321 314 310 313 307 309 307 304 286 255 222 213 227 228 213 194 192 195 197 202 235 246 249 285 287 292 302 284 264 273 258 251 246 241 238 242 247 248 248 247 241
307 320 317 319 323 323 323 333 334 342 326 300 285 223 236 217 209 197 187 187 197 195 220 255 251 271 272 292 311 306 290 269 265 257 250 246 242 239 242 248 249 247 243
313 324 328 338 322 318 322 326 320 321 285 278 286 237 233 213 214 207 196 200 204 198 202 243 274 284 274 284 298 300 301 282 273 263 247 248 242 240 244 247 248 247 246
335 352 9 342 316 307 306 308 308 310 306 275 262 234 236 221 236 225 208 208 210 204 197 217 260 267 269 284 310 304 305 307 291 274 255 250 249 246 248 248 249 248 245
1 5 3 335 320 312 315 313 317 320 314 305 287 257 241 228 228 221 211 211 198 198 200 213 247 270 274 279 283 302 318 324 313 309 301 285 273 266 265 258 254 251 247
12 10 2 352 345 340 336 326 327 329 329 331 329 306 272 244 228 216 204 201 195 203 205 214 229 247 269 273 272 263 283 309 314 305 300 303 290 275 271 266 261 258 250
12 14 2 357 352 346 348 348 340 333 337 335 328 323 307 282 263 236 224 207 196 198 206 209 227 240 256 257 263 262 264 301 299 298 278 301 291 276 275 264 261 255 253
11 7 354 352 340 333 340 340 337 337 331 325 321 322 320 318 288 254 251 250 243 228 210 207 220 236 239 234 226 242 239 245 258 270 257 285 291 291 294 294 269 257 254
358 346 342 340 336 333 337 341 339 335 327 321 316 311 308 315 297 244 213 230 267 262 233 218 222 241 244 236 219 218 220 235 277 285 242 254 290 291 305 308 296 270 260
347 337 329 332 333 325 335 346 349 325 325 321 316 321 312 306 306 228 146 168 317 310 305 223 239 264 266 245 181 156 177 195 308 311 271 232 269 290 294 291 301 296 295
327 332 334 327 320 315 328 341 348 326 321 319 325 330 335 336 342 37 160 171 254 293 321 350 352 351 348 358 142 180 199 206 249 281 263 226 258 281 289 287 306 311 299